Home > Weather > Cumberland County > Past weeks

Flag for Canada Weather for the Past 2 Weeks in Cumberland County, Nova Scotia, Canada

Now
40 °F

Quite cool.


Feels Like: 36 °F
Forecast: 35 / 50 °F
Wind: 6 mph from North

Location: Kentville

Current Time: May 3, 2016 at 11:34:09 PM

Latest Report: May 3, 2016 at 11:00 PM


Visibility: N/A

Pressure: 29.87 "Hg

Humidity: 93%

Dew Point: 38 °F

Location of Cumberland CountyLocation

Historic Weather in Cumberland County — Graph

°F

Cumberland County Temperature Yesterday

Maximum temperature yesterday: 58 °F (at 1:00 PM)
Minimum temperature yesterday: 40 °F (at 11:00 PM)
Average temperature yesterday: 47 °F

High & Low Weather Summary for the Past Weeks

 TemperatureHumidityPressure
High70 °F (Apr 22, 4:00 PM)100% (Apr 23, 10:00 PM)30.30 "Hg (Apr 23, 10:00 PM)
Low25 °F (Apr 26, 6:00 AM)12% (Apr 30, 7:00 PM)29.72 "Hg (Apr 21, 7:00 PM)
Average43 °F56%29.96 "Hg
* Reported Apr 18 10:00 PM — May 3 10:00 PM, Cumberland County, Weather by CustomWeather, © 2016

Note: Actual official high and low records may vary slightly from our data, if they occured in-between our weather recording intervals... More about our weather records

Advertising

Cumberland County Weather History for the Previous 24 Hours

Scroll right to see more
 ConditionsComfort  
Time TempWeatherWind HumidityBarometerVisibility
10:00 PM
Tue, May 3
42 °FQuite cool.5 mph90%29.88 "HgN/A
9:00 PM43 °FQuite cool.6 mph90%29.86 "HgN/A
8:00 PM44 °FQuite cool.7 mph89%29.86 "HgN/A
7:00 PM47 °FCool.3 mph81%29.84 "HgN/A
6:00 PM47 °FCool.8 mph78%29.84 "HgN/A
5:00 PM48 °FCool.7 mph77%29.83 "HgN/A
4:00 PM48 °FCool.8 mph79%29.81 "HgN/A
3:00 PM49 °FCool.8 mph82%29.81 "HgN/A
2:00 PM48 °FCool.9 mph87%29.80 "HgN/A
1:00 PM46 °FCool.8 mph92%29.81 "HgN/A
12:00 PM47 °FCool.8 mph93%29.81 "HgN/A
11:00 AM47 °FCool.7 mph97%29.79 "HgN/A
10:00 AM45 °FCool.6 mph98%29.79 "HgN/A
9:00 AM44 °FQuite cool.6 mph98%29.77 "HgN/A
8:00 AM44 °FQuite cool.5 mph100%29.74 "HgN/A
7:00 AM45 °FQuite cool.5 mph98%29.74 "HgN/A
6:00 AM44 °FQuite cool.3 mph98%29.75 "HgN/A
5:00 AM44 °FQuite cool.2 mph98%29.76 "HgN/A
4:00 AM43 °FQuite cool.6 mph98%29.75 "HgN/A
3:00 AM42 °FQuite cool.7 mph98%29.78 "HgN/A
2:00 AM40 °FQuite cool.7 mph100%29.82 "HgN/A
1:00 AM41 °FQuite cool.6 mph98%29.88 "HgN/A
12:00 AM41 °FQuite cool.5 mph98%29.93 "HgN/A
11:00 PM
Mon, May 2
40 °FQuite cool.6 mph98%29.98 "HgN/A
Weather by CustomWeather, © 2016

See weather overviewHow to use our weather pages